| time (UTC) | temp F | wind direction | speed knots | gust knots | rain 1hr in | rain 24hr in | rain mn in | humidity % | barometer mb |
| 20260507094456 | 54 | 350 | 0.0 | 0.0 | 0.00 | 0.25 | 0.16 | 94 | 1011.2 |
| 20260507093131 | 54 | 350 | 0.0 | 7.0 | 0.00 | 0.25 | 0.16 | 94 | 1010.8 |
| 20260507091630 | 54 | 355 | 0.0 | 7.0 | 0.00 | 0.25 | 0.16 | 93 | 1011.0 |
| 20260507090130 | 54 | 355 | 0.0 | 6.1 | 0.00 | 0.25 | 0.16 | 94 | 1010.7 |
| 20260507084630 | 54 | 355 | 0.0 | 6.1 | 0.00 | 0.25 | 0.16 | 95 | 1010.7 |
| 20260507084455 | 55 | 333 | 3.5 | 7.0 | 0.00 | 0.25 | 0.16 | 95 | 1010.7 |
| 20260507083129 | 55 | 344 | 0.0 | 6.1 | 0.00 | 0.25 | 0.16 | 95 | 1010.8 |
| 20260507081629 | 55 | 296 | 0.0 | 6.1 | 0.00 | 0.25 | 0.16 | 95 | 1010.4 |
| 20260507080130 | 55 | 327 | 0.0 | 6.1 | 0.00 | 0.25 | 0.16 | 95 | 1010.0 |
| 20260507074629 | 56 | 322 | 0.0 | 6.1 | 0.00 | 0.25 | 0.16 | 95 | 1009.9 |
| 20260507074505 | 56 | 322 | 0.9 | 4.3 | 0.00 | 0.25 | 0.16 | 95 | 1010.0 |
| 20260507073129 | 56 | 24 | 0.9 | 6.1 | 0.00 | 0.25 | 0.16 | 95 | 1009.6 |
| 20260507071629 | 56 | 346 | 0.9 | 6.1 | 0.00 | 0.25 | 0.16 | 95 | 1009.6 |
| 20260507070128 | 56 | 347 | 3.5 | 11.3 | 0.01 | 0.25 | 0.16 | 95 | 1009.6 |
| 20260507064628 | 57 | 71 | 1.7 | 11.3 | 0.01 | 0.25 | 0.16 | 95 | 1009.8 |
| 20260507064444 | 57 | 10 | 0.0 | 6.1 | 0.01 | 0.25 | 0.16 | 95 | 1009.7 |
| 20260507063128 | 57 | 355 | 3.5 | 10.4 | 0.08 | 0.25 | 0.16 | 95 | 1009.3 |
| 20260507061628 | 58 | 300 | 6.1 | 10.4 | 0.08 | 0.25 | 0.16 | 95 | 1008.8 |
| 20260507060127 | 59 | 18 | 0.0 | 6.1 | 0.15 | 0.24 | 0.15 | 95 | 1008.9 |
| 20260507054627 | 59 | 355 | 0.9 | 6.1 | 0.15 | 0.24 | 0.15 | 95 | 1009.4 |
| 20260507054452 | 59 | 355 | 0.0 | 3.5 | 0.15 | 0.24 | 0.15 | 95 | 1009.5 |
| 20260507053127 | 59 | 291 | 0.9 | 4.3 | 0.08 | 0.17 | 0.08 | 94 | 1009.1 |
| 20260507051627 | 60 | 34 | 0.0 | 4.3 | 0.08 | 0.17 | 0.08 | 92 | 1009.2 |
| 20260507050127 | 61 | 290 | 0.0 | 7.8 | 0.00 | 0.09 | 0.00 | 90 | 1009.8 |
| 20260507044626 | 62 | 5 | 0.0 | 7.8 | 0.00 | 0.09 | 0.00 | 89 | 1009.8 |
| 20260507044510 | 63 | 5 | 0.0 | 4.3 | 0.00 | 0.09 | 0.00 | 89 | 1009.7 |
| 20260507043126 | 63 | 14 | 3.5 | 1.7 | 0.00 | 0.09 | 0.00 | 90 | 1009.7 |
| 20260507041626 | 64 | 311 | 6.1 | 1.7 | 0.00 | 0.09 | 0.00 | 92 | 1009.2 |
| 20260507040126 | 65 | 294 | 0.0 | 2.6 | 0.00 | 0.09 | 0.09 | 93 | 1008.9 |
| 20260507034626 | 65 | 294 | 0.0 | 2.6 | 0.00 | 0.09 | 0.09 | 92 | 1008.9 |
| 20260507034512 | 65 | 294 | 0.0 | 0.0 | 0.00 | 0.09 | 0.09 | 92 | 1009.0 |
| 20260507033126 | 65 | 293 | 0.0 | 0.0 | 0.00 | 0.09 | 0.09 | 92 | 1008.7 |
| 20260507031625 | 65 | 133 | 0.0 | 0.0 | 0.00 | 0.09 | 0.09 | 92 | 1008.6 |
| 20260507030125 | 66 | 277 | 0.0 | 3.5 | 0.00 | 0.09 | 0.09 | 91 | 1008.6 |
| 20260507024625 | 66 | 163 | 0.0 | 3.5 | 0.00 | 0.09 | 0.09 | 91 | 1008.1 |
| 20260507024457 | 66 | 163 | 0.0 | 0.0 | 0.00 | 0.09 | 0.09 | 91 | 1008.2 |
| 20260507023125 | 66 | 163 | 0.0 | 0.0 | 0.00 | 0.09 | 0.09 | 92 | 1008.2 |
| 20260507021625 | 65 | 160 | 0.9 | 0.0 | 0.00 | 0.09 | 0.09 | 92 | 1008.0 |
| 20260507020124 | 65 | 161 | 0.0 | 0.0 | 0.00 | 0.09 | 0.09 | 92 | 1008.2 |
| 20260507014624 | 65 | 161 | 0.0 | 0.0 | 0.00 | 0.09 | 0.09 | 92 | 1008.1 |
| 20260507014447 | 65 | 161 | 0.0 | 0.0 | 0.00 | 0.09 | 0.09 | 92 | 1008.2 |
| 20260507013124 | 65 | 161 | 0.0 | 0.0 | 0.00 | 0.09 | 0.09 | 91 | 1008.4 |
| 20260507011624 | 65 | 161 | 0.0 | 0.0 | 0.00 | 0.09 | 0.09 | 91 | 1008.8 |
| 20260507010124 | 66 | 161 | 0.0 | 0.9 | 0.00 | 0.09 | 0.09 | 90 | 1008.5 |
| 20260507004623 | 66 | 161 | 0.0 | 0.9 | 0.00 | 0.09 | 0.09 | 89 | 1008.4 |
| 20260507004448 | 66 | 161 | 0.0 | 0.0 | 0.00 | 0.09 | 0.09 | 89 | 1008.3 |
| 20260507003123 | 66 | 161 | 0.0 | 0.0 | 0.00 | 0.09 | 0.09 | 88 | 1008.1 |
| 20260507001623 | 67 | 161 | 0.0 | 0.0 | 0.00 | 0.09 | 0.09 | 87 | 1008.1 |
| 20260507000123 | 67 | 161 | 0.0 | 1.7 | 0.00 | 0.09 | 0.09 | 86 | 1007.9 |
| 20260506234623 | 68 | 161 | 0.0 | 1.7 | 0.00 | 0.09 | 0.09 | 86 | 1007.7 |
| 20260506234517 | 68 | 161 | 0.0 | 0.0 | 0.00 | 0.09 | 0.09 | 86 | 1007.8 |
| 20260506233122 | 68 | 161 | 0.0 | 3.5 | 0.00 | 0.09 | 0.09 | 85 | 1007.8 |
| 20260506231622 | 69 | 153 | 0.9 | 3.5 | 0.00 | 0.09 | 0.09 | 84 | 1007.6 |
| 20260506230122 | 69 | 180 | 0.0 | 7.8 | 0.00 | 0.09 | 0.09 | 83 | 1007.5 |
| 20260506224622 | 69 | 180 | 0.0 | 7.8 | 0.00 | 0.09 | 0.09 | 83 | 1007.3 |
| 20260506224506 | 69 | 180 | 0.0 | 3.5 | 0.00 | 0.09 | 0.09 | 83 | 1007.4 |
| 20260506223122 | 69 | 225 | 0.0 | 6.1 | 0.00 | 0.09 | 0.09 | 83 | 1007.5 |
| 20260506221621 | 69 | 253 | 0.0 | 6.1 | 0.00 | 0.09 | 0.09 | 82 | 1007.6 |
| 20260506220121 | 70 | 214 | 0.0 | 8.7 | 0.00 | 0.09 | 0.09 | 82 | 1007.4 |
| 20260506214621 | 70 | 333 | 0.9 | 8.7 | 0.00 | 0.09 | 0.09 | 82 | 1007.6 |
| 20260506214445 | 70 | 203 | 2.6 | 5.2 | 0.00 | 0.09 | 0.09 | 82 | 1007.7 |
| 20260506213121 | 70 | 142 | 1.7 | 9.6 | 0.00 | 0.09 | 0.09 | 81 | 1007.3 |
| 20260506211621 | 70 | 114 | 0.0 | 9.6 | 0.00 | 0.09 | 0.09 | 82 | 1007.3 |
| 20260506210121 | 70 | 152 | 3.5 | 7.8 | 0.00 | 0.09 | 0.09 | 81 | 1007.0 |
| 20260506204620 | 69 | 94 | 3.5 | 7.8 | 0.00 | 0.09 | 0.09 | 82 | 1007.0 |
| 20260506204519 | 69 | 198 | 0.9 | 7.0 | 0.00 | 0.09 | 0.09 | 82 | 1007.1 |
| 20260506203120 | 69 | 188 | 3.5 | 11.3 | 0.00 | 0.09 | 0.09 | 82 | 1007.0 |
| 20260506201620 | 69 | 238 | 0.9 | 11.3 | 0.00 | 0.09 | 0.09 | 83 | 1007.2 |
| 20260506200120 | 69 | 59 | 0.0 | 12.2 | 0.00 | 0.09 | 0.09 | 83 | 1007.1 |
| 20260506194620 | 68 | 188 | 1.7 | 12.2 | 0.00 | 0.09 | 0.09 | 83 | 1007.0 |
| 20260506194447 | 68 | 322 | 2.6 | 12.2 | 0.00 | 0.09 | 0.09 | 83 | 1007.0 |
| 20260506193119 | 68 | 130 | 5.2 | 8.7 | 0.00 | 0.09 | 0.09 | 83 | 1007.3 |
| 20260506191619 | 68 | 128 | 6.1 | 8.7 | 0.00 | 0.09 | 0.09 | 83 | 1007.6 |
| 20260506190119 | 69 | 144 | 0.9 | 11.3 | 0.00 | 0.09 | 0.09 | 83 | 1007.8 |
| 20260506184619 | 69 | 230 | 0.0 | 11.3 | 0.00 | 0.09 | 0.09 | 82 | 1007.7 |
| 20260506184510 | 69 | 230 | 1.7 | 7.8 | 0.00 | 0.09 | 0.09 | 82 | 1007.7 |
| 20260506183118 | 68 | 140 | 0.9 | 12.2 | 0.00 | 0.09 | 0.09 | 83 | 1007.8 |
| 20260506181618 | 68 | 78 | 6.1 | 12.2 | 0.00 | 0.09 | 0.09 | 83 | 1008.2 |
| 20260506180118 | 67 | 261 | 0.9 | 12.2 | 0.00 | 0.09 | 0.09 | 84 | 1008.4 |
| 20260506174618 | 67 | 262 | 1.7 | 12.2 | 0.00 | 0.09 | 0.09 | 86 | 1008.4 |
| 20260506174444 | 66 | 279 | 1.7 | 7.8 | 0.00 | 0.09 | 0.09 | 86 | 1008.4 |
| 20260506173118 | 66 | 177 | 1.7 | 12.2 | 0.00 | 0.09 | 0.09 | 88 | 1008.3 |
| 20260506171618 | 65 | 180 | 2.6 | 12.2 | 0.00 | 0.09 | 0.09 | 89 | 1008.6 |
| 20260506170118 | 64 | 175 | 0.9 | 15.6 | 0.01 | 0.09 | 0.09 | 91 | 1008.6 |
| 20260506164617 | 64 | 163 | 1.7 | 15.6 | 0.01 | 0.09 | 0.09 | 93 | 1008.7 |
| 20260506164457 | 64 | 146 | 4.3 | 10.4 | 0.00 | 0.09 | 0.09 | 93 | 1008.8 |
| 20260506163117 | 63 | 125 | 4.3 | 12.2 | 0.03 | 0.09 | 0.09 | 94 | 1008.8 |
| 20260506161617 | 63 | 198 | 3.5 | 12.2 | 0.03 | 0.09 | 0.09 | 95 | 1008.8 |
| 20260506160117 | 62 | 187 | 1.7 | 13.9 | 0.03 | 0.08 | 0.08 | 95 | 1009.2 |
| 20260506154616 | 62 | 236 | 1.7 | 13.9 | 0.03 | 0.08 | 0.08 | 94 | 1009.1 |
| 20260506154500 | 62 | 131 | 6.1 | 12.2 | 0.04 | 0.09 | 0.09 | 94 | 1009.1 |
| 20260506153116 | 62 | 138 | 7.8 | 7.8 | 0.05 | 0.06 | 0.06 | 94 | 1009.3 |
| 20260506151616 | 62 | 198 | 6.1 | 7.8 | 0.05 | 0.06 | 0.06 | 94 | 1009.8 |
| 20260506150116 | 61 | 167 | 5.2 | 8.7 | 0.05 | 0.05 | 0.05 | 94 | 1009.9 |
| 20260506144616 | 61 | 165 | 5.2 | 8.7 | 0.05 | 0.05 | 0.05 | 93 | 1010.0 |
| 20260506144502 | 61 | 155 | 3.5 | 8.7 | 0.05 | 0.05 | 0.05 | 93 | 1010.1 |
| 20260506143116 | 62 | 127 | 0.9 | 8.7 | 0.01 | 0.01 | 0.01 | 91 | 1009.9 |
| 20260506141615 | 62 | 154 | 0.9 | 8.7 | 0.01 | 0.01 | 0.01 | 90 | 1010.0 |
| 20260506140115 | 63 | 138 | 0.9 | 7.8 | 0.00 | 0.00 | 0.00 | 88 | 1010.2 |
| 20260506134615 | 64 | 121 | 0.9 | 7.8 | 0.00 | 0.00 | 0.00 | 84 | 1010.2 |
| 20260506134452 | 64 | 148 | 1.7 | 8.7 | 0.00 | 0.00 | 0.00 | 83 | 1010.3 |
| 20260506133115 | 65 | 163 | 0.0 | 11.3 | 0.00 | 0.00 | 0.00 | 79 | 1010.3 |
| 20260506131615 | 65 | 142 | 4.3 | 11.3 | 0.00 | 0.00 | 0.00 | 78 | 1010.0 |
| 20260506130115 | 66 | 140 | 3.5 | 9.6 | 0.00 | 0.00 | 0.00 | 77 | 1009.8 |
| 20260506124614 | 66 | 219 | 6.1 | 9.6 | 0.00 | 0.00 | 0.00 | 77 | 1009.6 |
| 20260506124446 | 66 | 170 | 2.6 | 7.8 | 0.00 | 0.00 | 0.00 | 77 | 1009.7 |
| 20260506123114 | 66 | 205 | 0.9 | 8.7 | 0.00 | 0.00 | 0.00 | 77 | 1009.8 |
| 20260506121614 | 66 | 205 | 0.0 | 8.7 | 0.00 | 0.00 | 0.00 | 77 | 1010.0 |